Location: Unspecified
(49.9820°N, 20.4363°E)
Time: 04:58:48
(UTC+02:00)

Vanguard 3 - Pass Details

Date: 21 May 2026
Orbit: 507 x 3204 km, 33.3° (Epoch: 6 June)

Event Time Altitude Azimuth Distance (km) Brightness Sun altitude
Rises 19:26:35 0° 275° (W) 7,152 13.6 7.5°
Reaches altitude 10° 19:34:46 10° 257° (WSW) 5,960 12.5 6.3°
Maximum altitude 19:42:53 15° 230° (SW) 5,162 11.6 5.1°
Drops below altitude 10° 19:49:59 10° 202° (SSW) 5,065 11.2 4.1°
Sets 19:55:55 0° 181° (S) 5,525 11.1 3.3°
